TimeMST,TemperatureF,Dew PointF,Humidity,Sea Level PressureIn,VisibilityMPH,Wind Direction,Wind SpeedMPH,Gust SpeedMPH,PrecipitationIn,Events,Conditions,WindDirDegrees,DateUTC
5:00 AM,36,24,49,29.94,15,SSE,6.9,,,,Scattered Clouds,160,2011-11-10 12:00:00
5:00 AM,35.6,24.8,65,29.94,15.0,SSE,8.1,-,N/A,,Mostly Cloudy,160,2011-11-10 12:00:00
6:00 AM,35.6,23.0,60,29.92,15.0,South,6.9,-,N/A,,Mostly Cloudy,170,2011-11-10 13:00:00
7:00 AM,33.8,23.0,65,29.89,15.0,SSW,6.9,-,N/A,,Overcast,210,2011-11-10 14:00:00
8:00 AM,41.0,24.8,53,29.85,20.0,WSW,12.7,-,N/A,,Mostly Cloudy,250,2011-11-10 15:00:00
9:00 AM,46.4,26.6,46,29.81,20.0,SW,11.5,-,N/A,,Overcast,220,2011-11-10 16:00:00
10:00 AM,50.0,26.6,40,29.79,20.0,West,23.0,32.2,N/A,,Overcast,260,2011-11-10 17:00:00
11:00 AM,52,25,23,29.72,28,West,15.0,,,,Scattered Clouds,260,2011-11-10 18:00:00
11:00 AM,51.8,24.8,35,29.72,30.0,West,15.0,-,N/A,,Mostly Cloudy,270,2011-11-10 18:00:00
12:00 PM,51.8,24.8,35,29.71,30.0,West,21.9,-,N/A,,Mostly Cloudy,280,2011-11-10 19:00:00
1:00 PM,51.8,24.8,35,29.68,30.0,West,15.0,31.1,N/A,,Mostly Cloudy,270,2011-11-10 20:00:00
2:00 PM,53.6,24.8,33,29.70,30.0,WNW,31.1,39.1,N/A,,Scattered Clouds,300,2011-11-10 21:00:00
3:00 PM,51.8,24.8,35,29.71,30.0,WNW,18.4,27.6,N/A,,Scattered Clouds,300,2011-11-10 22:00:00
4:00 PM,50.0,23.0,35,29.72,30.0,WNW,11.5,17.3,N/A,,Mostly Cloudy,300,2011-11-10 23:00:00
5:00 PM,47,23,25,29.72,19,West,15.0,,,,Scattered Clouds,270,2011-11-11 00:00:00
6:00 PM,44.6,23.0,43,29.72,15.0,WNW,9.2,17.3,N/A,,Mostly Cloudy,290,2011-11-11 01:00:00
7:00 PM,44.6,23.0,43,29.73,15.0,West,9.2,-,N/A,,Mostly Cloudy,260,2011-11-11 02:00:00
8:00 PM,44.6,23.0,43,29.72,15.0,West,11.5,-,N/A,,Mostly Cloudy,260,2011-11-11 03:00:00
9:00 PM,39.2,23.0,52,29.70,15.0,South,6.9,-,N/A,,Overcast,190,2011-11-11 04:00:00
10:00 PM,39.2,21.2,49,29.61,15.0,SSW,8.1,-,N/A,,Overcast,200,2011-11-11 05:00:00